Vertical_Velocity
-7 -8 -5 -2 -5 -5 -4 -2 1 -0 -4 4 -2 -6 -2 -3 -0 0 -1 -1 -0 2
-8 -6 -7 -6 -6 -6 -2 -2 -1 -2 -3 -0 -5 -5 -4 -6 -5 0 3 3 -0 -1
-11 -10 -8 -7 -7 -6 -2 -4 -5 0 -0 1 -4 5 4 -2 -1 -3 -0 1 1 1
-3 -2 -6 -10 -6 -6 -8 0 -0 -1 -4 -1 -0 5 1 -4 1 7 4 0 1 2
-6 -5 -7 -6 -4 -2 -8 1 -2 0 -6 -2 -3 -1 5 23 13 7 3 -1 1 -1
-1 -3 -2 -4 -4 -2 -5 -2 -2 -3 -2 -5 -4 -3 -1 -4 21 9 8 5 -1 3
-0 -3 -4 -3 -3 -5 -3 -4 -3 1 -3 -1 -2 -4 0 -24 0 49 7 5 0 4
-4 -3 -4 -3 -2 -4 -6 -3 -3 -4 -2 -2 -4 -2 0 -13 9 19 10 -9 -0 1
-4 -3 -1 -1 0 -3 -2 -3 -4 -2 -5 -5 -1 2 11 -5 -6 -4 17 3 4 1
-4 -5 -2 -2 -4 -2 -4 -4 -2 -3 -5 -8 -3 9 -3 16 -10 13 3 2 0 1
-2 -4 -1 -2 -1 -0 -3 -2 0 -2 -5 -5 -4 -1 5 11 -8 -0 7 5 1 2
1 -2 1 0 1 1 -6 -0 3 -4 -1 -12 11 -5 14 0 -12 3 14 1 4 3
0 0 -1 0 2 2 -3 0 0 -7 -0 -0 -1 6 11 3 16 -1 -3 5 7 -2
3 -1 2 2 2 -1 1 -2 -3 -9 0 -5 -11 2 13 7 -8 2 1 -5 -0 5
Height
3035 3031 3028 3026 3025 3025 3025 3027 3029 3032 3034 3035 3035 3039 3042 3044 3047 3051 3054 3058 3062 3066
3022 3018 3013 3010 3006 3003 3003 3003 3005 3010 3014 3016 3017 3021 3025 3028 3031 3035 3039 3043 3048 3053
3005 3001 2998 2993 2990 2987 2985 2984 2983 2984 2989 2995 2999 3003 3007 3011 3016 3020 3024 3028 3033 3039
2987 2983 2979 2976 2974 2971 2969 2967 2966 2966 2967 2971 2977 2983 2987 2993 2998 3004 3009 3013 3018 3025
2970 2966 2961 2958 2956 2953 2952 2950 2949 2949 2950 2952 2955 2961 2965 2971 2978 2986 2993 2997 3004 3011
2955 2950 2945 2941 2938 2935 2933 2933 2933 2933 2934 2936 2938 2940 2946 2949 2956 2967 2976 2982 2989 2997
2941 2935 2930 2925 2922 2920 2917 2915 2916 2917 2918 2920 2922 2924 2927 2934 2940 2949 2958 2967 2976 2983
2926 2921 2915 2910 2906 2903 2901 2899 2899 2900 2903 2905 2906 2908 2910 2923 2929 2936 2942 2954 2963 2970
2910 2903 2897 2893 2888 2885 2884 2883 2883 2885 2887 2890 2892 2895 2897 2908 2914 2925 2929 2940 2949 2959
2893 2886 2881 2876 2872 2870 2869 2869 2870 2871 2874 2877 2878 2881 2885 2894 2903 2910 2914 2927 2939 2948
2879 2871 2866 2862 2858 2857 2856 2856 2858 2859 2862 2863 2865 2869 2873 2883 2892 2898 2904 2918 2928 2937
2867 2860 2855 2851 2848 2846 2845 2846 2847 2848 2849 2850 2852 2858 2865 2875 2884 2890 2899 2910 2920 2928
2858 2852 2846 2842 2839 2838 2837 2837 2836 2836 2838 2840 2842 2848 2855 2866 2874 2883 2893 2904 2912 2919
2852 2845 2839 2835 2832 2829 2828 2826 2827 2828 2830 2831 2836 2841 2849 2860 2867 2877 2887 2896 2902 2908